Ogden, UT

9:55 PM MDT on September 24, 2017 (GMT -0600)
Ogden-Hinckley

Weather History for KOGD - September, 2012

Change the Weather History Date:

Monday, September 24, 2012

  Actual Average Record
Temperature  
Mean Temperature 62 °F -  
Max Temperature 66 °F 76 °F 91 °F (1992)
Min Temperature 55 °F 45 °F 29 °F (1945)
Degree Days  
Heating Degree Days 4    
Growing Degree Days 12 (Base 50)    
Moisture  
Dew Point 45 °F    
Average Humidity 57    
Maximum Humidity 67    
Minimum Humidity 43    
Precipitation  
Precipitation 0.00 in - - ()
Sea Level Pressure  
Sea Level Pressure 29.96 in    
Wind  
Wind Speed 7 mph (West)    
Max Wind Speed 17 mph    
Max Gust Speed 31 mph    
Visibility 10 miles    
Events Rain    
Averages and records for this station are not official NWS values.
T = Trace of Precipitation, MM = Missing Value Source: NWS Daily Summary

Daily Weather History Graph

Daily Weather History Graph

Search for Another Location

Airport or City:

Trip Planner

Search our weather history database for the weather conditions in past years. The results will help you decide how hot, cold, wet, or windy it might be!

Date:

Astronomy

Sep. 24, 2012 Rise Set
Actual Time 7:18 AM MDT 7:20 PM MDT
Civil Twilight 6:50 AM MDT 7:48 PM MDT
Nautical Twilight 6:18 AM MDT 8:20 PM MDT
Astronomical Twilight 5:45 AM MDT 8:52 PM MDT
Moon 4:11 PM MDT (9/24) 1:35 AM MDT (9/24)
Length of Visible Light 12h 57m
Length of Day
12h 02m
Waxing Gibbous, 71% of the Moon is Illuminated
Sep 24
Waxing Gibbous
Sep 29
Full
Oct 8
Last Quarter
Oct 15
New
Oct 21
First Quarter

Hourly Weather History & Observations

Time (MDT) Temp. Dew Point Humidity Pressure Visibility Wind Dir Wind Speed Gust Speed Precip Events Conditions
12:00 AM 66.2 °F 46.4 °F 49% 30.07 in 10.0 mi West 17.3 mph 31.1 mph 0.00 in Rain Light Rain
12:53 AM 66.9 °F 44.1 °F 44% 29.91 in 10.0 mi ESE 5.8 mph - 0.00 in   Overcast
1:53 AM 64.0 °F 48.0 °F 56% 29.90 in 10.0 mi WNW 6.9 mph - 0.00 in   Mostly Cloudy
2:53 AM 60.1 °F 46.9 °F 62% 29.91 in 10.0 mi WNW 5.8 mph - N/A   Scattered Clouds
3:53 AM 59.0 °F 46.9 °F 64% 29.91 in 10.0 mi NW 9.2 mph - N/A   Partly Cloudy
4:53 AM 57.9 °F 46.9 °F 67% 29.92 in 10.0 mi WNW 5.8 mph - N/A   Clear
5:53 AM 57.9 °F 46.9 °F 67% 29.94 in 10.0 mi WNW 5.8 mph - N/A   Clear
6:53 AM 57.9 °F 46.9 °F 67% 29.97 in 10.0 mi Calm Calm - N/A   Mostly Cloudy
7:53 AM 57.9 °F 46.9 °F 67% 30.01 in 10.0 mi South 5.8 mph - N/A   Overcast
8:53 AM 60.1 °F 46.9 °F 62% 30.01 in 10.0 mi SE 5.8 mph - N/A   Overcast
9:53 AM 60.1 °F 46.0 °F 60% 30.02 in 10.0 mi West 3.5 mph - N/A   Overcast
10:53 AM 60.1 °F 46.0 °F 60% 30.03 in 10.0 mi SSW 8.1 mph - N/A   Overcast
11:53 AM 61.0 °F 46.0 °F 58% 30.01 in 10.0 mi South 5.8 mph - N/A   Overcast
12:53 PM 63.0 °F 44.1 °F 50% 29.99 in 10.0 mi SSW 5.8 mph - N/A   Mostly Cloudy
1:53 PM 62.1 °F 44.1 °F 52% 29.97 in 10.0 mi WSW 9.2 mph - N/A   Overcast
2:53 PM 61.0 °F 46.9 °F 60% 29.96 in 10.0 mi WNW 6.9 mph - 0.00 in Rain Light Rain
3:53 PM 62.1 °F 45.0 °F 53% 29.94 in 10.0 mi NNW 4.6 mph - 0.00 in   Clear
4:53 PM 63.0 °F 44.1 °F 50% 29.94 in 10.0 mi NNW 3.5 mph - N/A   Clear
5:53 PM 66.0 °F 43.0 °F 43% 29.93 in 10.0 mi NE 4.6 mph - N/A   Clear
6:53 PM 63.0 °F 42.1 °F 46% 29.92 in 10.0 mi Calm Calm - N/A   Clear
7:53 PM 60.1 °F 42.1 °F 51% 29.94 in 10.0 mi Calm Calm - N/A   Clear
8:53 PM 57.0 °F 43.0 °F 59% 29.94 in 10.0 mi Calm Calm - N/A   Scattered Clouds
9:53 PM 57.9 °F 45.0 °F 62% 29.94 in 10.0 mi Calm Calm - N/A   Overcast
10:53 PM 57.0 °F 44.1 °F 62% 29.94 in 10.0 mi South 4.6 mph - N/A   Overcast
11:53 PM 55.9 °F 43.0 °F 62% 29.93 in 10.0 mi Calm Calm - N/A   Overcast